Springfield, MO

8:54 PM CDT on April 21, 2018 (GMT -0500)
Springfield-Branson Regional

Weather History for KSGF - October, 2013

Change the Weather History Date:

Sunday, October 6, 2013

  Actual Average Record
Temperature  
Mean Temperature 51 °F 61 °F  
Max Temperature 59 °F 72 °F 89 °F (1938)
Min Temperature 43 °F 50 °F 30 °F (1964)
Degree Days  
Heating Degree Days 14 6  
Month to date heating degree days 19 31  
Since 1 July heating degree days 33 86  
Cooling Degree Days 0 2  
Month to date cooling degree days 40 12  
Year to date cooling degree days 1413 1371  
Growing Degree Days 1 (Base 50)    
Moisture  
Dew Point 40 °F    
Average Humidity 70    
Maximum Humidity 89    
Minimum Humidity 51    
Precipitation  
Precipitation 0.00 in 0.12 in 2.34 in (1967)
Month to date precipitation 2.54 0.74  
Year to date precipitation 42.87 35.46  
Snow  
Snow 0.00 in - - ()
Month to date snowfall 0.0  
Since 1 July snowfall 0.0  
Since 1 September snowfall 0.0  
Snow Depth 0.00 in    
Sea Level Pressure  
Sea Level Pressure 29.96 in    
Wind  
Wind Speed 11 mph (West)    
Max Wind Speed 24 mph    
Max Gust Speed 32 mph    
Visibility 10 miles    
Events      
T = Trace of Precipitation, MM = Missing Value Source: NWS Daily Summary

Daily Weather History Graph

Daily Weather History Graph

Search for Another Location

Airport or City:

Astronomy

Oct. 06, 2013 Rise Set
Actual Time 7:13 AM CDT 6:48 PM CDT
Civil Twilight 6:47 AM CDT 7:14 PM CDT
Nautical Twilight 6:17 AM CDT 7:45 PM CDT
Astronomical Twilight 5:47 AM CDT 8:15 PM CDT
Moon 8:55 AM CDT (10/6) 7:52 PM CDT (10/6)
Length of Visible Light 12h 27m
Length of Day
11h 35m
Waxing Crescent, 3% of the Moon is Illuminated
Oct 6
Waxing Crescent
Oct 11
First Quarter
Oct 18
Full
Oct 26
Last Quarter
Nov 3
New

Hourly Weather History & Observations

Time (CDT) Temp. Windchill Dew Point Humidity Pressure Visibility Wind Dir Wind Speed Gust Speed Precip Events Conditions
12:52 AM 48.9 °F - 44.1 °F 83% 29.97 in 10.0 mi WSW 9.2 mph - N/A   Clear
1:52 AM 48.9 °F - 42.1 °F 77% 29.96 in 10.0 mi WSW 10.4 mph - N/A   Clear
2:52 AM 46.9 °F - 41.0 °F 80% 29.95 in 10.0 mi WSW 6.9 mph - N/A   Clear
3:52 AM 46.0 °F 41.4 °F 41.0 °F 83% 29.93 in 10.0 mi WSW 9.2 mph - N/A   Clear
4:52 AM 45.0 °F 40.6 °F 39.9 °F 82% 29.93 in 10.0 mi WSW 8.1 mph - N/A   Clear
5:52 AM 43.0 °F 37.7 °F 39.0 °F 86% 29.94 in 10.0 mi SW 9.2 mph - N/A   Clear
6:52 AM 45.0 °F 41.2 °F 37.0 °F 74% 29.95 in 10.0 mi West 6.9 mph - N/A   Clear
7:52 AM 45.0 °F 40.6 °F 37.0 °F 74% 29.95 in 10.0 mi West 8.1 mph - N/A   Clear
8:52 AM 48.0 °F - 37.9 °F 68% 29.96 in 10.0 mi West 11.5 mph - N/A   Clear
9:52 AM 48.9 °F - 37.9 °F 66% 29.97 in 10.0 mi WNW 13.8 mph 23.0 mph N/A   Partly Cloudy
10:52 AM 51.1 °F - 39.0 °F 63% 29.98 in 10.0 mi WNW 10.4 mph 23.0 mph N/A   Partly Cloudy
11:41 AM 53.1 °F - 39.9 °F 61% 29.98 in 10.0 mi West 15.0 mph 20.7 mph N/A   Mostly Cloudy
11:52 AM 53.1 °F - 39.0 °F 59% 29.98 in 10.0 mi West 15.0 mph 21.9 mph N/A   Mostly Cloudy
12:52 PM 53.1 °F - 39.0 °F 59% 29.97 in 10.0 mi WNW 11.5 mph - N/A   Mostly Cloudy
1:52 PM 55.0 °F - 41.0 °F 59% 29.96 in 10.0 mi West 15.0 mph 19.6 mph N/A   Overcast
2:52 PM 55.9 °F - 39.0 °F 53% 29.96 in 10.0 mi WNW 13.8 mph 28.8 mph N/A   Overcast
3:52 PM 55.9 °F - 39.0 °F 53% 29.96 in 10.0 mi WNW 12.7 mph 21.9 mph N/A   Mostly Cloudy
4:52 PM 57.0 °F - 39.9 °F 53% 29.95 in 10.0 mi West 12.7 mph 20.7 mph N/A   Partly Cloudy
5:52 PM 57.9 °F - 39.9 °F 51% 29.95 in 10.0 mi West 12.7 mph - N/A   Clear
6:52 PM 55.0 °F - 41.0 °F 59% 29.96 in 10.0 mi West 6.9 mph - N/A   Clear
7:52 PM 55.0 °F - 43.0 °F 64% 29.95 in 10.0 mi SW 8.1 mph - N/A   Overcast
8:52 PM 55.9 °F - 43.0 °F 62% 29.96 in 10.0 mi WSW 9.2 mph - N/A   Overcast
9:52 PM 57.9 °F - 43.0 °F 58% 29.98 in 10.0 mi WNW 15.0 mph 24.2 mph N/A   Overcast
10:52 PM 57.0 °F - 44.1 °F 62% 30.00 in 10.0 mi NNW 18.4 mph 26.5 mph N/A   Overcast
11:52 PM 54.0 °F - 44.1 °F 69% 30.00 in 10.0 mi NNW 15.0 mph - N/A   Clear